Historique des stations

Station météo de Le Grand-Pressigny

Altitude de la station : 93 m







Données météorologiques pour le 04/08/2021
Date
Heure
Températures Humidité Point de rosée Vitesse
du vent
Direction Rafales Windchill Pression Pluviométrie
Cumul
Date
Heure
Températures Humidité Point de rosée Vitesse
du vent
Direction Rafales Windchill Pression Pluviométrie
Cumul
04/08/2021 09:0014.3 °C97 %13.8 °C---01014 hPa0.6 mm
04/08/2021 08:4014.2 °C97 %13.7 °C---01014 hPa0.6 mm
04/08/2021 08:3014.1 °C97 %13.6 °C---01014 hPa0.6 mm
04/08/2021 08:1014 °C96 %13.4 °C-2 km/h01014 hPa0.6 mm
04/08/2021 08:0013.9 °C96 %13.3 °C---01014 hPa0.6 mm
04/08/2021 07:4013.9 °C96 %13.3 °C-2 km/h01014 hPa0.6 mm
04/08/2021 07:3013.8 °C96 %13.2 °C-2 km/h01014 hPa0.4 mm
04/08/2021 07:1013.8 °C96 %13.2 °C---01014 hPa0.2 mm
04/08/2021 07:0013.7 °C96 %13.1 °C-2 km/h01014 hPa0.0 mm
04/08/2021 06:4013.6 °C96 %12.9 °C---01014 hPa0.0 mm
04/08/2021 06:3013.6 °C96 %12.9 °C-2 km/h01014 hPa0.0 mm
04/08/2021 06:1013.5 °C96 %12.9 °C-2 km/h01014 hPa0.0 mm
04/08/2021 06:0013.4 °C96 %12.8 °C-2 km/h01015 hPa0.0 mm
04/08/2021 05:4013.3 °C96 %12.7 °C---01015 hPa0.0 mm
04/08/2021 05:3013.3 °C96 %12.7 °C---01015 hPa0.0 mm
04/08/2021 05:1013.2 °C96 %12.6 °C-2 km/h01015 hPa0.0 mm
04/08/2021 05:0013.1 °C96 %12.5 °C---01015 hPa0.0 mm
04/08/2021 04:4013 °C96 %12.4 °C---01015 hPa0.0 mm
04/08/2021 04:3013 °C96 %12.4 °C---01015 hPa0.0 mm
04/08/2021 04:1013.1 °C96 %12.4 °C-2 km/h01015 hPa0.0 mm
04/08/2021 04:0013 °C96 %12.4 °C---01015 hPa0.0 mm
04/08/2021 03:4012.9 °C96 %12.3 °C---01015 hPa0.0 mm
04/08/2021 03:3012.9 °C96 %12.3 °C-2 km/h01015 hPa0.0 mm
04/08/2021 03:1013.1 °C96 %12.4 °C---01016 hPa0.0 mm
04/08/2021 03:0013 °C95 %12.2 °C---01016 hPa0.0 mm
04/08/2021 02:4013 °C95 %12.2 °C---01016 hPa0.0 mm
04/08/2021 02:3012.9 °C95 %12.2 °C---01016 hPa0.0 mm
04/08/2021 02:1013.1 °C95 %12.3 °C---01016 hPa0.0 mm
04/08/2021 02:0013.1 °C95 %12.3 °C---01016 hPa0.0 mm
04/08/2021 01:4013.2 °C95 %12.4 °C---01016 hPa3.4 mm
04/08/2021 01:3013.2 °C95 %12.4 °C---01016 hPa3.4 mm
04/08/2021 01:1013.4 °C95 %12.7 °C---01016 hPa3.4 mm
04/08/2021 01:0013.5 °C95 %12.7 °C---01017 hPa3.4 mm
04/08/2021 00:4013.4 °C95 %12.7 °C---01016 hPa3.4 mm
04/08/2021 00:3013.6 °C94 %12.6 °C---01016 hPa3.4 mm
04/08/2021 00:1013.8 °C94 %12.8 °C---01016 hPa3.4 mm
04/08/2021 00:0013.9 °C94 %13 °C---01016 hPa3.4 mm


Minima :

Température : 12.9 °C
Humidité : 94 %
Point de rosée : 12.2 °C
Vent moyen : - km/h
Windchill : 0
Pression atm. : 1014 hPa
Maxima :

Température : 14.3 °C
Humidité : 97 %
Point de rosée : 13.8 °C
Vent moyen : 0 km/h
Windchill : 0
Pression atm. : 1017 hPa
Rafales max : 2 km/h
Cumul de pluie sur 24H : 3.4 mm

Le Grand-Pressigny est une commune du département Indre-et-Loire (37).
La station météorologique du réseau de l'association la plus proche de Le Grand-Pressigny est celle de Les Ormes



Icône Facebook Association Météo Centre Icône Twitter Association Météo Centre Icône Chaîne Youtube Association Météo Centre Icône contact Association Météo Centre Icône Insta Association Météo Centre